266  
AXUS43 KGID 250502  
MISGRI  
 
GID CWA HOURLY WEATHER ROUNDUP  
NATIONAL WEATHER SERVICE HASTINGS NE  
1200 AM CDT MON MAY 25 2020  
 
NOTE: "FAIR" INDICATES FEW OR NO CLOUDS BELOW 12,000 FEET WITH NO  
SIGNIFICANT WEATHER AND/OR OBSTRUCTIONS TO VISIBILITY.  
   
..SOUTH CENTRAL NEBRASKA
 
 
 
CITY SKY/WX TMP DP RH WIND PRES REMARKS  
GRAND ISLAND CLOUDY 65 58 78 NE17 29.84F  
KEARNEY TSTM N/A N/A N/A N16 29.88R  
HASTINGS CLOUDY 65 63 93 E17G25 29.81F  
ORD LGT RAIN 60 55 83 N13 29.87F  
YORK N/A 66 66 100 MISG 29.83  
AURORA LGT RAIN 66 62 86 NE15 29.83F  
LEXINGTON RAIN 59 57 93 NE10 29.88F  
HOLDREGE TSTM 60 58 93 NE23G30 29.86S  
HEBRON CLOUDY 64 61 90 E9 29.81F  
   
..NEBRASKA PANHANDLE
 
 
 
CITY SKY/WX TMP DP RH WIND PRES REMARKS  
CHADRON FAIR 52 43 71 NE8 30.08R  
ALLIANCE CLOUDY 50 45 83 N8 30.06R  
SCOTTSBLUFF FAIR 51 42 71 N7 30.07S  
SIDNEY CLOUDY 47 44 90 N5 30.04F  
   
..WESTERN AND NORTH CENTRAL NEBRASKA
 
 
 
CITY SKY/WX TMP DP RH WIND PRES REMARKS  
VALENTINE FAIR 55 48 77 N13 30.00F  
AINSWORTH FAIR 55 51 86 N15 29.97F  
ONEILL MOCLDY 59 53 80 NW13 29.91R  
BROKEN BOW CLOUDY 61 53 75 N14 29.89S  
IMPERIAL CLOUDY 53 43 68 NW21G35 29.98R  
NORTH PLATTE CLOUDY 62 49 62 NE12 29.93R  
MCCOOK HVY RAIN 59 56 89 N15 29.89R FOG  
   
..EASTERN NEBRASKA
 
 
 
CITY SKY/WX TMP DP RH WIND PRES REMARKS  
NORFOLK FAIR 63 57 81 N7 29.88S  
SO SIOUX CITY FAIR 61 59 93 NW5 29.83F  
TEKAMAH FAIR 64 60 87 N7 29.84R  
COLUMBUS CLOUDY 64 60 87 NE7 29.87R  
ALBION CLOUDY 64 57 80 N10 29.88R  
OMAHA EPPLEY CLOUDY 65 63 93 NE7 29.83R  
OFFUTT AFB FAIR 64 62 95 E3 29.83R  
MILLARD FAIR 65 62 91 CALM 29.83R  
LINCOLN FAIR 63 60 90 CALM 29.83S  
NEBRASKA CITY FAIR 63 63 100 CALM 29.82R  
BEATRICE FAIR 62 61 97 CALM 29.83R  
FALLS CITY FAIR 61 60 97 E6 29.79F  
   
..NORTHERN KANSAS
 
 
 
CITY SKY/WX TMP DP RH WIND PRES REMARKS  
GOODLAND LGT RAIN 49 46 90 NW29G44 29.95F  
HILL CITY LGT RAIN 63 62 97 NE18 29.79F  
PHILLIPSBURG TSTM 64 59 82 N24G30 29.82R  
OBERLIN CLOUDY 59 59 100 N25G32 29.90S FOG  
HAYS LGT RAIN 61 60 97 NW6 29.78R  
RUSSELL TSTM 59 56 89 E12 29.73F  
CONCORDIA LGT RAIN 66 60 81 E10G20 29.80R  
SALINA TSTM 62 59 90 NE17G26 29.78F FOG  
TOPEKA MOCLDY 69 63 81 E7 29.78S  
 
CLICK HERE TO GO TO PREVIOUS BULLETINS.

The Nexlab NE Page
The Nexlab KS Page Main Text Page